Flag for Ukraine Weather past 2 weeks in Odesa, Ukraine

Now
61 °F

Fog.


Feels Like: 61 °F
Forecast: 59 / 79 °F
Wind: No wind

Location: Odesa Airport

Current Time: May 25, 2015 at 1:29:55 AM

Latest Report: May 25, 2015 at 12:30 AM


Visibility: 0 mi

Pressure: 29.86 "Hg

Humidity: 100%

Dew point: 61 °F

Location of OdesaLocation

Historic Weather in Odesa — Graph

°F

Odesa temperature yesterday

Maximum temperature yesterday: 77 °F (at 11:30 AM)
Minimum temperature yesterday: 54 °F (at 4:00 AM)
Average temperature yesterday: 66 °F

Past Weeks' High & Low Weather Summary

 TemperatureHumidityPressure
High81 °F (May 22, 5:30 PM)100% (May 16, 4:30 AM)30.18 "Hg (May 16, 4:30 AM)
Low45 °F (May 17, 5:00 AM)21% (May 23, 6:00 PM)29.65 "Hg (May 15, 1:00 AM)
Average64 °F62%29.99 "Hg
* Reported Midnight between May 9 and May 10 — Midnight between May 24 and May 25, Odesa, Weather by CustomWeather, © 2015

Note: Actual official high and low records may vary slightly from our data, if they occured in-between our weather recording intervals... More about our weather records

Advertising

Odesa weather history for previous 24 hours

 ConditionsComfort  
Time TempWeatherWind HumidityBarometerVisibility
12:00 AM
Mon, May 25
61 °FFog.No wind100%29.86 "Hg2 mi
11:30 PM
Sun, May 24
61 °FFog.No wind100%29.86 "Hg3 mi
11:00 PM61 °FClear.1 mph100%29.86 "Hg10 mi
10:30 PM61 °FClear.3 mph94%29.86 "Hg10 mi
10:00 PM61 °FClear.3 mph94%29.86 "Hg10 mi
9:30 PM63 °FSunny.3 mph88%29.83 "Hg10 mi
9:00 PM63 °FSunny.3 mph88%29.83 "Hg10 mi
8:30 PM64 °FSunny.3 mph83%29.83 "Hg10 mi
8:00 PM68 °FSunny.3 mph73%29.83 "Hg10 mi
7:30 PM70 °FSunny.3 mph69%29.83 "Hg10 mi
7:00 PM72 °FSunny.3 mph61%29.83 "Hg10 mi
6:30 PM72 °FPassing clouds.3 mph65%29.83 "HgN/A
6:00 PM72 °FPassing clouds.6 mph69%29.83 "HgN/A
5:30 PM72 °FPassing clouds.6 mph69%29.86 "HgN/A
5:00 PM73 °FSunny.3 mph57%29.86 "Hg10 mi
4:30 PM73 °FPassing clouds.6 mph57%29.86 "HgN/A
4:00 PM75 °FPassing clouds.6 mph50%29.86 "HgN/A
3:30 PM75 °FPassing clouds.8 mph54%29.86 "HgN/A
3:00 PM75 °FPassing clouds.6 mph54%29.86 "HgN/A
2:30 PM75 °FPassing clouds.6 mph54%29.86 "HgN/A
2:00 PM77 °FPassing clouds.6 mph51%29.86 "HgN/A
1:30 PM77 °FPassing clouds.8 mph51%29.86 "HgN/A
1:00 PM77 °FPassing clouds.6 mph47%29.86 "HgN/A
12:30 PM77 °FPassing clouds.6 mph47%29.86 "HgN/A
12:00 PM77 °FSunny.3 mph44%29.86 "Hg10 mi
11:30 AM77 °FPassing clouds.3 mph44%29.86 "HgN/A
11:00 AM75 °FPassing clouds.6 mph47%29.86 "HgN/A
10:30 AM73 °FPassing clouds.6 mph57%29.86 "HgN/A
10:00 AM73 °FPassing clouds.3 mph61%29.86 "HgN/A
9:30 AM72 °FSunny.3 mph61%29.86 "Hg10 mi
9:00 AM72 °FSunny.3 mph57%29.86 "Hg10 mi
8:30 AM70 °FSunny.3 mph57%29.86 "Hg10 mi
8:00 AM68 °FSunny.1 mph64%29.86 "Hg10 mi
7:30 AM64 °FPassing clouds.3 mph73%29.86 "HgN/A
7:00 AM63 °FPassing clouds.3 mph77%29.86 "HgN/A
6:30 AM59 °FSunny.3 mph88%29.86 "Hg10 mi
6:00 AM57 °FClear.No wind88%29.86 "Hg10 mi
5:30 AM54 °FClear.No wind82%29.86 "Hg10 mi
5:00 AM54 °FClear.No wind82%29.86 "Hg10 mi
4:30 AM55 °FClear.No wind82%29.86 "Hg10 mi
4:00 AM54 °FClear.No wind88%29.86 "Hg10 mi
3:30 AM55 °FClear.No wind82%29.86 "Hg10 mi
3:00 AM55 °FClear.No wind82%29.86 "Hg10 mi
2:30 AM57 °FClear.No wind82%29.86 "Hg10 mi
2:00 AM57 °FClear.No wind77%29.86 "Hg10 mi
1:30 AM57 °FClear.No wind82%29.86 "Hg10 mi
1:00 AM59 °FClear.No wind77%29.89 "Hg10 mi
Weather by CustomWeather, © 2015

See weather overviewHow to use our weather pages